Weather History for Greensboro, NC

Change the Weather History Date:

Saturday, December 15, 2012

  Actual Average Record
Temperature  
Mean Temperature 47 °F 41 °F  
Max Temperature 59 °F 51 °F 73 °F (1971)
Min Temperature 35 °F 32 °F 6 °F (1958)
Degree Days  
Heating Degree Days 18 24  
Month to date heating degree days 206 331  
Since 1 July heating degree days 985 1011  
Cooling Degree Days 0 0  
Month to date cooling degree days 0 0  
Year to date cooling degree days 1623 1483  
Moisture  
Dew Point 27 °F    
Average Humidity 50    
Maximum Humidity 75    
Minimum Humidity 25    
Precipitation  
Precipitation 0.00 in 0.09 in 1.89 in (1972)
Month to date precipitation 0.20 1.48  
Year to date precipitation 34.26 40.70  
Snow  
Snow 0.00 in 0.00 in 1.70 in (1945)
Month to date snowfall 0.0 0.2  
Since 1 July snowfall 0.0 0.3  
Snow Depth 0.00 in    
Sea Level Pressure  
Sea Level Pressure 30.18 in    
Wind  
Wind Speed 4 mph (South)    
Max Wind Speed 12 mph    
Max Gust Speed 15 mph    
Visibility 10 miles    
Events      
T = Trace of Precipitation, MM = Missing Value Source: NWS Daily Summary

Daily Weather History Graph

Daily Weather History Graph

Search for Another Location

Airport:

Trip Planner

Search our weather history database for the weather conditions in past years. The results will help you decide how hot, cold, wet, or windy it might be!

Date:

Astronomy

Dec. 15, 2012 Rise Set
Actual Time 7:23 AM EST 5:06 PM EST
Civil Twilight 6:55 AM EST 5:35 PM EST
Nautical Twilight 6:22 AM EST 6:07 PM EST
Astronomical Twilight 5:51 AM EST 6:38 PM EST
Moon 9:18 AM EST (12/15) 8:05 PM EST (12/15)
Length of Visible Light 10h 40m
Length of Day
9h 43m
Waxing Crescent, 8% of the Moon is Illuminated
Dec 15
Waxing Crescent
Dec 20
First Quarter
Dec 28
Full
Jan 4
Last Quarter
Jan 11
New

Hourly Weather History & Observations

Time (EST) Temp. Dew Point Humidity Pressure Visibility Wind Dir Wind Speed Gust Speed Precip Events Conditions
12:54 AM 37.0 °F 27.0 °F 67% 30.24 in 10.0 mi Calm Calm - N/A   Clear
1:54 AM 37.0 °F 27.0 °F 67% 30.24 in 10.0 mi Calm Calm - N/A   Clear
2:54 AM 37.9 °F 26.1 °F 62% 30.22 in 10.0 mi Calm Calm - N/A   Clear
3:54 AM 37.9 °F 27.0 °F 65% 30.21 in 10.0 mi Calm Calm - N/A   Clear
4:54 AM 37.9 °F 27.0 °F 65% 30.20 in 10.0 mi Calm Calm - N/A   Clear
5:54 AM 35.1 °F 28.9 °F 78% 30.22 in 10.0 mi Calm Calm - N/A   Clear
6:54 AM 37.0 °F 28.9 °F 73% 30.23 in 10.0 mi Calm Calm - N/A   Clear
7:54 AM 39.9 °F 28.0 °F 63% 30.24 in 10.0 mi Calm Calm - N/A   Clear
8:54 AM 41.0 °F 32.0 °F 70% 30.23 in 10.0 mi Calm Calm - N/A   Clear
9:54 AM 44.1 °F 32.0 °F 63% 30.26 in 10.0 mi Calm Calm - N/A   Clear
10:54 AM 50.0 °F 28.0 °F 43% 30.24 in 10.0 mi South 4.6 mph - N/A   Clear
11:54 AM 54.0 °F 27.0 °F 35% 30.21 in 10.0 mi South 6.9 mph - N/A   Clear
12:54 PM 57.0 °F 25.0 °F 29% 30.17 in 10.0 mi SSW 8.1 mph - N/A   Clear
1:54 PM 57.0 °F 25.0 °F 29% 30.14 in 10.0 mi South 8.1 mph - N/A   Clear
2:54 PM 57.9 °F 24.1 °F 27% 30.13 in 10.0 mi South 6.9 mph - N/A   Clear
3:54 PM 57.0 °F 23.0 °F 27% 30.12 in 10.0 mi South 11.5 mph - N/A   Clear
4:54 PM 54.0 °F 25.0 °F 33% 30.12 in 10.0 mi South 5.8 mph - N/A   Scattered Clouds
5:54 PM 51.1 °F 28.0 °F 41% 30.12 in 10.0 mi SSE 5.8 mph - N/A   Clear
6:54 PM 51.1 °F 27.0 °F 39% 30.12 in 10.0 mi South 3.5 mph - N/A   Mostly Cloudy
7:54 PM 50.0 °F 26.1 °F 39% 30.12 in 10.0 mi South 3.5 mph - N/A   Mostly Cloudy
8:54 PM 46.9 °F 28.9 °F 50% 30.12 in 10.0 mi South 5.8 mph - N/A   Mostly Cloudy
9:54 PM 48.0 °F 28.0 °F 46% 30.11 in 10.0 mi SW 4.6 mph - N/A   Mostly Cloudy
10:54 PM 48.0 °F 28.9 °F 48% 30.08 in 10.0 mi SSE 5.8 mph - N/A   Mostly Cloudy
11:54 PM 48.0 °F 28.9 °F 48% 30.07 in 10.0 mi SSW 3.5 mph - N/A   Mostly Cloudy